854  
ASUS41 KAKQ 251515  
RWRAKQ  
 
REGIONAL WEATHER ROUNDUP  
NATIONAL WEATHER SERVICE WAKEFIELD VA  
1100 AM EDT SUN JUN 25 2017  
 
NOTE: "FAIR" INDICATES FEW OR NO CLOUDS BELOW 12,000 FEET WITH NO  
SIGNIFICANT WEATHER AND/OR S TO VISIBILITY
. * = DENOTES  
STATION MAY NOT REPORT PRECIPITATION (E.G., RAIN,SNOW,ETC.),
 
THUNDER OR FOG.  
 
VAZ042-051-052>054-056-251600-  
NORTHERN VIRGINIA  
 
CITY SKY/WX TMP DP RH WIND PRES REMARKS
 
WASH NATIONAL PTSUNNY 82 60 47 NW7 30.04S  
DULLES PTSUNNY 78 60 53 W3 30.05R  
FORT BELVOIR MOSUNNY 81 57 44 W3 30.04S  
QUANTICO PTSUNNY 83 60 45 VRB5 30.05S  
FREDERICKSBRG* MOSUNNY 81 61 50 NW5 30.04S  
STAFFORD* MOSUNNY 81 57 44 W3 30.09S  
WARRENTON MOSUNNY 83 54 36 W6 30.06R  
CULPEPER* SUNNY 81 60 49 NW6 30.07R  
MANASSAS* SUNNY 81 62 52 NW9 30.06R  
LEESBURG* MOSUNNY N/A N/A N/A CALM 30.06S  
WINCHESTER MOSUNNY 77 54 44 W7 30.06S  
FRONT ROYAL* PTSUNNY 77 57 50 SW6 30.06S  
LURAY* MOSUNNY 77 57 50 SW7 30.08S  

 
 
VAZ048-049-060>072-079>083-251600-  
CENTRAL AND SOUTH CENTRAL VIRGINIA  
 
CITY SKY/WX TMP DP RH WIND PRES REMARKS
 
RICHMOND CLOUDY 80 63 55 N8 30.06R  
CHESTERFIELD* FAIR 79 64 60 N6 30.06  
PETERSBURG* CLOUDY 79 62 56 CALM 30.06S  
HANOVER CLOUDY 80 62 54 N3 30.07R  
TAPPAHANNOCK* CLOUDY 81 55 40 NW5 30.06R  
QUINTON* FAIR 79 64 59 N7 30.05R  
CHARLOTTSVILLE MOSUNNY 80 60 50 CALM 30.07S  
GORDONSVILLE* SUNNY 80 61 52 W6 30.06S  
ORANGE* SUNNY 79 59 50 CALM 30.06S  
LOUISA* MOSUNNY 84 64 51 W5 30.06R  
BUMPASS* FAIR 77 61 56 CALM 30.07S  
FARMVILLE* PTSUNNY 79 56 46 CALM 30.06S  
CREWE* FAIR 79 57 46 N6 30.07S  
FORT PICKETT* FAIR 79 56 45 N7 30.07S  
CHASE CITY* PTSUNNY 76 65 67 NW5 30.08S  
CLARKSVILLE* FAIR 77 64 65 N6 30.08S  
SOUTH HILL* MOSUNNY 80 66 62 N7 30.13R  
LAWRENCEVILLE* FAIR 79 63 58 NW3 30.07R  
EMPORIA* MOSUNNY 79 68 69 NW8 30.07R  

 
 
VAZ088>098-251600-  
SOUTHEAST VIRGINIA  
 
CITY SKY/WX TMP DP RH WIND PRES REMARKS
 
NORFOLK PTSUNNY 84 73 69 VRB3 30.02R  
VIRGINIA BEACH PTSUNNY 82 71 69 VRB3 30.01R  
NORFOLK NAVAL NOT AVBL  
WEST POINT* CLOUDY 81 62 52 N3 30.06R  
SALUDA* CLOUDY 80 64 58 N7 30.04R  
NEWPORT NEWS CLOUDY 82 71 69 N6 30.03R  
LANGLEY AFB PTSUNNY 82 68 63 NE6 30.02R  
FORT EUSTIS PTSUNNY 83 71 65 NW8 30.01R  
WILLIAMSBURG* CLOUDY 81 70 69 CALM 30.05R  
HR EXEC AP* PTSUNNY 81 72 74 NW3 30.00S  
FRANKLIN* CLOUDY 81 72 74 NW5 30.04R  
US460-WAKEFLD PTSUNNY 82 69 64 VRB6 30.04R  

 
 
VAZ020-022-025-037-045-251600-  
WEST CENTRAL AND SOUTHWEST VIRGINIA  
 
CITY SKY/WX TMP DP RH WIND PRES REMARKS
 
STAUNTON* PTSUNNY 73 56 54 W3 30.12R  
WAYNESBORO* MOSUNNY 74 55 49 NW14 30.11S  
HOT SPRINGS VA PTSUNNY 64 45 48 W10G18 30.21S  
LYNCHBURG MOSUNNY 75 59 57 N3 30.11S  
DANVILLE PTSUNNY 76 65 68 N8 30.10S  
SOUTH BOSTON* FAIR 76 64 64 NW6 30.09S  
MARTINSVILLE CLOUDY 73 60 62 N3 30.16R  
ROANOKE PTSUNNY 75 57 53 W8 30.15S  
BLACKSBURG PTSUNNY 69 55 59 NW12G17 30.21R  
DUBLIN* PTSUNNY 72 50 46 W9 30.19S  
MARION* MOSUNNY 69 55 60 W12 30.23S  
HILLSVILLE* PTSUNNY 66 51 58 NW5 30.19S  
RICHLANDS* FAIR 66 55 66 N7 30.24R  
WISE* MOSUNNY 66 50 55 CALM 30.26S  
ABINGDON* SUNNY 70 54 57 N3 30.22S  

 
 
MDZ021>025-VAZ099-100-251600-  
SOUTHERN MARYLAND AND THE DELMARVA PENINSULA  
 
CITY SKY/WX TMP DP RH WIND PRES REMARKS
 
PATUXENT RIVER PTSUNNY 83 58 42 N14G21 30.03R  
BAY BRIDGE APT MOSUNNY 79 63 57 NW5 30.03S  
LEONARDTOWN MOSUNNY 79 61 53 NW9 30.05S  
DOVER MOSUNNY 82 60 48 CALM 30.00S  
GEORGETOWN PTSUNNY 82 63 52 NE6 30.02R  
EASTON PTSUNNY 81 61 50 N5 30.06S  
CAMBRIDGE MOSUNNY 81 64 57 VRB6G13 30.02S  
SALISBURY CLOUDY 81 65 58 NW8 30.02R  
OCEAN CITY PTSUNNY 80 67 64 E6 30.01S  
WALLOPS ISLAND MOSUNNY 86 65 49 NW6 30.01S  
ACCOMACK* MOSUNNY 84 64 50 N3 30.02R  

 
 
NCZ012>017-030>032-251600-  
NORTH CENTRAL AND EASTERN NORTH CAROLINA  
 
CITY SKY/WX TMP DP RH WIND PRES REMARKS
 
ROANOKE RAPIDS FAIR 79 68 69 N6 30.05S  
RALEIGH PTSUNNY 79 65 62 N8 30.09R  
ELIZABETH CITY SUNNY 83 75 77 W6 30.03S  
AHOSKIE* N/A 75 71 88 CALM 30.05R  
EDENTON* MOSUNNY 81 73 77 CALM 30.04S  
CURRITUCK* SUNNY 82 73 74 SW3 30.03S  
KILL DEVIL HLS MOSUNNY 80 73 78 W6 30.02S  
MANTEO MOSUNNY 79 73 81 W6 30.03F  
CAPE HATTERAS CLOUDY 80 75 84 W6 30.05R  
TARBORO* NOT AVBL  
GOLDSBORO CLOUDY 78 78 100 CALM 30.05R  
WASHINGTON PTSUNNY N/A N/A N/A W3 30.05R  
GREENVILLE CLOUDY 79 73 83 CALM 30.06S  
NEW BERN CLOUDY 79 75 87 NW5 30.06R  
WILMINGTON PTSUNNY 82 75 79 SW8 30.06R  

 
 
VAZ048-251600-  
ELSEWHERE  
 
CITY SKY/WX TMP DP RH WIND PRES REMARKS
 
HARRISBURG PA MOSUNNY 78 58 49 CALM 30.01S  
BALTIMORE PTSUNNY 81 59 47 N6 30.02F  
ANNAPOLIS PTSUNNY 77 64 64 N5 30.02S  
ANDREWS AFB MOSUNNY 81 59 47 N3 30.03S  
PHILADELPHIA PTSUNNY 80 58 46 SE7 30.01S  
HENDERSON NC PTSUNNY 75 63 66 N9 30.09R  
GREENSBORO CLOUDY 75 62 64 N7 30.12R  
ROCKY MOUNT MOSUNNY 80 71 74 NW6 30.06R  

 
 
VAZ100-251600-  
MARINE  
 
STATION/POSITION TIME TEMP WIND PRES WAVE SWELL
 
AIR SEA DIR/SP/G HT/PER HT/PER  
(UTC) (F) (DEG/KT/KT) (MB) (FT/S) (FT/S)  
BRANDYWINE LGT 1442 75 340/ 5/ 5 1016.8R  
CAPE MAY NJ 1448 80 68 270/ 2/ 5 1016.1R  
LEWES DE 1442 74 71 340/ 5/ 6 1016.5R  
15NM E FENWICK I 1450 70 68 350/ 4/ 6 1016.5R 3/ 8 3/ 8  
OCEAN-CITY-INLET 1448 78 63 40/ 2/ 4 1016.5R  
WACHAPREAGUE VA 1448 80 77 100/ 6/ 6 1016.1R  
THOMAS POINT MD 1500 77 78 360/ 4/ 4 N/A  
GOOSES REEF MD 1500 78 78 340/ 8/ 10 1017.8 1/ 2  
COVE POINT MD 1448 77 350/ 12/ 15 1017.7R  
SOLOMONS ISLAND 1442 79 78 330/ 8/ 12 N/A  
BISHOPS HEAD MD 1448 80 81 350/ 6/ 9 1016.9R  
PINEY POINT MD 1442 340/ 9/ 11 N/A  
POTOMAC MD 1500 79 78 350/ 6/ 10 1016.1 1  
CAMBRIDGE MD 1448 82 82 1017.4R  
LEWISETTA VA 1448 79 79 360/ 8/ 11 1017.0R  
RAPPAHANNOCK LGT 1442 350/ 11/ 13 1017.1R  
STINGRAY PT 1500 80 78 30/ 12/ 14 1017.3 1/ 3  
YORK RVR RNG VA 1448 80 360/ 3/ 4 1017.2R  
YORKTOWN VA 1448 79 78 310/ 7/ 8 1016.6R  
JAMESTOWN VA 1500 80 82 350/ 6/ 12 N/A 0  
DOMINION TERM VA 1448 78 320/ 5/ 6 1016.8R  
KIPTOPEKE VA 1442 77 300/ 6/ 7 N/A  
CHES BAY BRIDGE 1448 77 75 280/ 4/ 4 1016.5R  
CAPE HENRY VA 1448 78 320/ 5/ 7 N/A  
WILLOUBY STN VA 1448 77 230/ 8/ 9 1016.6R  
S CRANEY ISL VA 1448 80 340/ 5/ 7 1016.4R  
CAPE HENRY BUOY 1430 72 N/A 2/ 9  
1ST LANDING BUOY 1500 78 76 1016.5 1/ 3  
CAPE CHARLES BUO 1451 70 N/A 2/ 6  
64NM E OF VA BCH 1450 72 72 250/ 8/ 8 1017.2R 4/ 7 3/ 7  
DUCK PIER NC 1448 77 60 260/ 6/ 9 1016.5R  
44100 DUCK FRF 1405 71 N/A 2/ 6  
OREGON INLET NC 1436 78 80 240/ 5/ 6 1016.9S  
HATTERAS NC 1436 78 78 270/ 5/ 6 1017.1R  
DIAMOND SHLS NC 1450 78 80 280/ 10/ 12 1017.2R 4/ 6 3/ 6  
CAPE LOOKOUT NC 1400 79 240/ 7/ 10 1016.9F  

 
 
 
CLICK HERE TO GO TO PREVIOUS BULLETINS.

The Nexlab VA Page
The Nexlab NC Page
The Nexlab MD Page Main Text Page